Wind_Speed
37 37 36 36 36 35 34 33 32 32 31 30 30 29 28 27 26 25 25 24 23 23 22 21 20 19 19 18 17 17 16 15 14 13 12 12 11 11 10 9 9 9 8
38 38 38 38 38 37 36 35 34 34 33 32 31 30 30 30 28 27 28 27 26 26 25 24 23 22 21 20 20 19 18 18 17 16 15 14 13 13 12 12 11 11 10
40 40 40 40 40 40 39 38 37 35 35 34 34 32 31 31 30 30 30 30 29 28 27 26 25 24 23 23 22 22 21 20 19 19 18 17 16 15 14 14 13 13 13
42 42 42 42 42 42 42 40 39 38 37 35 35 35 34 33 33 31 31 31 31 31 30 29 27 26 25 25 24 24 23 22 21 21 20 20 19 18 17 16 16 15 15
43 44 44 44 44 44 43 43 42 40 38 38 37 36 36 35 35 33 32 32 33 33 32 31 30 28 27 27 26 25 25 24 24 23 23 22 21 21 20 19 18 17 17
45 46 46 46 46 46 45 45 44 43 40 40 39 38 37 37 36 35 35 34 34 34 34 33 32 31 29 29 28 28 27 26 26 26 25 25 24 23 22 21 20 19 19
47 47 48 48 47 46 47 47 46 44 42 41 40 39 38 38 37 36 36 36 35 35 36 36 34 33 32 31 30 30 29 28 28 27 27 26 26 26 25 24 23 21 21
48 48 48 48 49 48 48 49 48 47 45 43 42 41 40 40 38 38 37 37 36 35 36 36 36 35 34 33 33 32 31 30 30 29 29 29 28 28 27 26 25 23 23
49 49 48 49 49 50 50 50 50 48 48 47 45 43 42 41 41 40 39 38 37 37 37 37 38 38 37 36 35 34 33 33 32 31 30 30 29 29 28 27 26 26 25
49 49 49 48 49 51 52 52 52 51 49 49 47 47 45 44 42 42 41 41 40 40 39 39 39 39 38 38 38 37 36 35 34 33 32 31 31 30 30 30 28 27 26
50 50 50 50 49 49 50 52 52 52 51 50 48 48 48 47 45 43 42 42 42 42 42 41 40 41 40 40 39 39 38 37 36 35 34 33 32 32 31 31 30 29 28
51 51 50 51 51 51 50 51 51 52 52 51 49 48 48 48 47 46 45 44 43 43 43 43 43 43 43 42 41 41 40 39 38 37 36 35 34 33 33 33 32 31 30
51 51 51 50 51 52 52 52 51 52 52 52 51 49 49 50 49 48 47 46 45 44 44 44 44 44 44 43 43 43 42 40 39 39 38 37 36 35 35 34 34 33 32
50 50 50 51 51 52 52 52 52 51 51 52 51 51 51 51 51 50 48 48 47 46 46 45 44 45 45 44 44 44 44 43 42 41 40 40 39 38 38 37 35 35 34
50 50 50 51 51 51 51 52 52 52 51 52 52 51 51 52 52 52 50 49 48 48 47 47 45 45 46 46 46 46 46 46 45 44 43 42 42 40 40 39 38 36 36
51 51 51 52 52 51 51 52 53 53 53 52 53 52 52 52 52 52 51 50 49 49 48 48 47 46 47 47 47 47 47 47 47 46 46 45 44 43 42 41 41 39 38
52 51 50 52 53 52 52 52 52 53 54 53 53 53 52 51 52 52 52 51 50 50 49 48 48 48 48 48 49 49 48 48 49 48 47 47 46 45 45 44 44 43 41
52 52 51 51 52 53 54 53 52 53 54 54 53 53 53 53 53 53 53 53 52 51 50 49 49 50 49 49 49 49 49 49 50 49 49 49 48 48 47 47 46 45 44
52 53 52 52 53 54 54 54 54 53 54 54 54 54 54 53 53 54 54 53 53 53 52 51 51 50 50 51 51 51 50 50 50 51 51 50 50 49 49 49 48 47 47
51 51 52 52 53 53 53 53 54 53 53 54 55 55 55 54 54 55 55 54 54 53 54 53 52 52 52 52 53 52 52 51 51 51 52 52 52 51 51 51 51 50 49
51 51 51 51 52 53 53 53 54 54 54 54 55 56 56 55 55 56 56 57 56 55 54 53 53 54 53 53 52 53 52 52 52 52 52 53 53 53 53 53 52 52 51
49 50 50 50 50 51 52 53 54 54 54 54 55 56 57 57 56 57 57 58 58 56 55 53 52 52 52 52 52 51 51 52 52 52 53 53 53 54 54 55 55 54 53
47 48 48 48 49 50 51 51 52 53 53 54 55 55 56 56 56 56 57 58 58 57 57 55 54 52 51 52 53 53 53 52 51 52 53 53 54 54 55 56 56 56 55
45 46 48 49 49 50 51 52 53 53 54 54 54 55 55 55 56 56 56 57 57 57 57 57 55 54 53 53 52 52 52 52 52 52 53 53 53 54 54 55 56 56 56
44 45 46 47 48 49 49 51 53 54 54 54 55 55 54 55 55 56 57 57 58 58 58 58 57 55 54 53 52 51 52 53 53 53 53 53 53 54 54 54 55 56 56
43 44 45 45 46 48 49 50 51 52 53 53 53 54 54 55 55 56 57 58 58 58 57 57 58 57 56 55 55 53 53 53 53 52 52 52 53 54 54 53 54 55 56
Wind_Direction
253 251 249 247 245 245 245 244 243 242 241 243 243 241 241 242 243 243 241 241 241 241 242 243 244 244 244 244 244 246 248 250 251 254 259 261 263 266 270 275 280 283 288
253 251 250 248 245 244 244 243 242 241 241 243 244 243 242 243 243 243 242 241 241 242 242 243 244 244 244 245 246 247 250 251 253 255 257 258 261 264 267 270 274 277 281
252 252 250 248 246 245 244 243 242 241 242 242 243 243 244 244 245 245 244 242 242 242 243 244 245 245 244 245 247 248 250 251 254 257 257 257 259 262 265 268 271 274 277
252 251 250 248 247 245 244 243 241 241 242 242 243 243 243 245 245 245 245 243 242 242 243 244 245 245 245 246 248 248 249 251 254 256 258 259 259 261 265 267 270 273 275
251 251 251 249 247 245 243 241 240 240 241 243 244 245 244 245 245 244 244 244 242 242 243 244 244 245 246 246 247 248 249 251 254 256 258 259 260 260 262 265 268 271 273
251 251 250 249 247 244 242 240 239 239 241 242 243 245 246 245 245 245 245 245 244 243 242 243 244 244 246 247 247 248 251 253 255 257 259 259 259 259 261 263 266 269 272
252 251 249 248 246 243 241 239 239 239 240 241 242 243 246 245 245 245 245 245 245 244 243 243 243 244 245 246 248 249 251 254 255 257 259 259 259 260 260 262 264 267 270
252 250 248 247 245 242 240 238 238 239 240 240 242 243 244 244 244 244 245 245 245 245 245 244 243 244 246 247 248 249 251 253 256 257 258 258 258 258 260 261 262 264 267
251 248 247 245 244 242 239 239 238 239 240 241 242 244 244 244 245 245 245 245 245 245 246 246 245 245 246 248 249 250 251 253 254 256 257 257 257 257 258 259 260 262 265
250 249 247 246 244 242 241 240 239 239 241 241 243 243 244 245 245 246 246 246 245 246 247 247 246 246 247 248 249 250 251 252 254 254 255 256 256 256 257 257 259 260 264
251 249 248 246 245 244 242 241 241 240 241 242 243 243 244 245 245 247 246 246 246 246 247 247 247 247 248 248 248 249 251 252 252 253 253 254 255 256 255 256 257 259 261
251 250 249 248 246 244 242 242 243 242 242 242 243 243 244 244 245 246 246 246 246 247 248 249 249 249 249 249 249 249 249 250 251 251 252 253 254 254 254 255 256 257 259
251 251 250 248 247 245 243 243 243 243 243 243 243 243 244 245 245 245 246 246 246 246 247 249 249 250 251 251 251 250 249 250 251 251 251 252 253 253 254 254 254 255 257
250 250 250 248 247 245 243 243 243 244 243 244 244 244 244 245 246 246 246 246 246 247 247 247 249 250 251 251 251 250 251 250 251 251 251 252 252 252 252 252 254 256 256
249 249 249 248 246 245 244 243 243 244 244 244 245 245 246 245 246 246 246 246 247 247 247 248 249 250 250 250 251 250 251 251 252 252 252 252 253 253 253 252 253 257 257
248 248 247 247 246 246 246 245 245 244 244 244 245 245 246 247 246 246 246 247 247 248 247 248 248 250 250 250 250 251 251 251 252 252 252 252 253 254 254 254 255 257 258
249 248 247 247 246 246 246 246 246 246 245 245 245 245 246 246 246 246 246 246 247 247 247 246 246 248 249 250 250 251 252 252 251 252 252 252 252 253 254 253 255 256 259
248 248 248 247 246 247 246 246 247 247 246 245 246 245 245 245 245 246 246 246 246 247 247 247 247 247 248 250 252 252 252 252 251 251 252 252 252 253 253 253 254 256 258
249 249 248 247 246 247 247 247 247 247 246 245 246 246 245 245 245 246 246 246 246 246 246 247 247 247 248 250 251 253 253 252 252 252 251 251 251 252 253 253 254 256 257
249 248 247 247 247 248 247 247 247 247 246 246 247 246 246 246 246 246 246 246 246 246 247 247 248 248 248 250 252 252 253 253 252 252 251 251 251 252 252 253 254 255 257
249 249 248 248 248 247 248 248 247 247 248 247 247 247 246 245 245 246 246 246 246 247 248 248 248 249 251 251 252 252 252 252 252 252 252 251 251 252 253 253 254 255 257
251 250 249 248 248 248 248 248 248 248 248 247 246 246 246 245 245 246 246 246 248 248 249 248 249 251 252 251 250 251 251 252 251 252 252 252 252 253 254 255 255 256 258
251 250 249 248 248 248 248 249 247 248 248 248 247 245 245 246 246 246 246 247 248 249 249 250 250 251 251 252 251 251 252 251 252 252 252 252 253 254 255 256 256 257 257
251 251 250 249 249 249 249 250 249 250 251 250 248 247 247 246 246 246 246 247 247 247 248 250 251 251 252 252 252 251 251 251 251 252 253 253 253 254 256 256 256 257 257
251 250 250 250 251 250 251 251 251 250 251 251 250 249 247 247 247 247 248 247 246 246 248 249 250 250 251 251 251 251 251 251 251 253 254 255 254 254 255 255 256 257 257
251 250 250 250 250 252 252 252 252 251 251 251 251 249 248 248 248 247 248 247 246 247 247 248 249 250 251 251 252 253 253 253 253 253 254 255 255 255 255 255 256 257 258
Height
5768 5770 5772 5775 5778 5781 5784 5787 5790 5793 5796 5799 5801 5804 5806 5808 5811 5813 5815 5817 5819 5821 5823 5825 5826 5828 5829 5831 5832 5833 5834 5835 5836 5836 5837 5837 5837 5838 5838 5838 5838 5837 5837
5759 5761 5763 5766 5769 5772 5775 5779 5782 5786 5788 5791 5794 5797 5799 5801 5804 5807 5809 5811 5814 5816 5818 5820 5821 5823 5825 5826 5828 5829 5830 5831 5832 5833 5833 5834 5834 5834 5835 5835 5835 5835 5834
5749 5751 5754 5756 5759 5762 5766 5770 5773 5777 5780 5783 5787 5789 5792 5794 5797 5800 5802 5805 5807 5809 5812 5814 5816 5817 5819 5821 5823 5824 5826 5827 5828 5828 5829 5830 5830 5831 5831 5831 5831 5831 5831
5739 5741 5743 5746 5749 5752 5756 5760 5764 5768 5771 5775 5778 5781 5784 5787 5789 5792 5794 5797 5800 5803 5805 5807 5809 5811 5813 5815 5817 5818 5820 5821 5822 5823 5824 5825 5826 5826 5827 5827 5827 5828 5827
5728 5730 5732 5735 5738 5741 5745 5750 5754 5758 5762 5765 5769 5772 5776 5778 5781 5783 5786 5789 5792 5795 5798 5800 5803 5805 5807 5809 5811 5812 5814 5815 5817 5818 5819 5820 5821 5822 5822 5823 5823 5823 5823
5716 5718 5721 5724 5727 5730 5734 5739 5743 5747 5751 5756 5759 5763 5766 5769 5772 5775 5778 5781 5784 5787 5790 5792 5795 5798 5800 5802 5804 5806 5807 5809 5810 5812 5813 5814 5815 5816 5817 5817 5818 5818 5818
5703 5706 5708 5712 5715 5719 5723 5728 5732 5737 5741 5746 5750 5754 5757 5760 5763 5766 5769 5772 5775 5778 5781 5784 5787 5790 5792 5794 5796 5798 5800 5802 5803 5804 5806 5807 5808 5809 5811 5812 5812 5813 5813
5690 5692 5695 5699 5703 5707 5711 5716 5721 5726 5731 5735 5739 5743 5747 5751 5753 5756 5760 5763 5766 5769 5772 5775 5778 5781 5784 5786 5788 5790 5792 5794 5795 5797 5798 5799 5801 5802 5804 5805 5806 5807 5807
5677 5680 5682 5686 5690 5694 5699 5704 5709 5715 5719 5724 5727 5732 5736 5741 5744 5747 5750 5753 5756 5759 5763 5766 5769 5772 5775 5777 5780 5782 5784 5786 5787 5789 5790 5791 5793 5794 5796 5798 5799 5800 5801
5664 5667 5670 5674 5677 5682 5686 5691 5697 5702 5707 5712 5716 5720 5725 5729 5733 5737 5740 5743 5746 5750 5753 5756 5759 5762 5765 5768 5770 5773 5775 5777 5779 5780 5782 5784 5785 5787 5788 5790 5792 5793 5794
5652 5655 5658 5662 5665 5669 5674 5679 5684 5689 5694 5700 5704 5708 5713 5717 5721 5726 5730 5733 5736 5739 5743 5746 5749 5751 5754 5757 5760 5763 5765 5767 5769 5771 5773 5775 5777 5779 5780 5782 5784 5785 5786
5640 5642 5645 5649 5653 5657 5662 5666 5671 5676 5681 5686 5691 5696 5700 5705 5709 5713 5718 5722 5726 5729 5732 5735 5738 5741 5744 5747 5750 5753 5756 5758 5760 5762 5764 5766 5768 5770 5772 5774 5776 5777 5779
5627 5630 5633 5637 5640 5645 5649 5654 5659 5663 5668 5673 5678 5683 5688 5692 5696 5700 5705 5709 5714 5718 5721 5724 5727 5730 5733 5736 5739 5742 5745 5748 5750 5753 5755 5757 5759 5762 5764 5765 5767 5769 5770
5615 5618 5621 5624 5628 5632 5636 5641 5646 5650 5655 5659 5664 5669 5674 5679 5683 5688 5692 5697 5701 5705 5709 5712 5715 5718 5722 5725 5728 5731 5734 5737 5740 5742 5745 5748 5750 5752 5754 5756 5758 5760 5761
5601 5605 5608 5612 5615 5619 5624 5628 5633 5638 5642 5646 5651 5655 5660 5665 5669 5674 5679 5683 5688 5692 5697 5701 5704 5707 5709 5713 5716 5719 5723 5726 5729 5732 5734 5737 5740 5742 5745 5746 5749 5750 5752
5588 5591 5595 5599 5603 5607 5611 5615 5620 5624 5629 5633 5637 5642 5646 5651 5656 5660 5665 5670 5674 5678 5683 5688 5692 5695 5697 5700 5703 5707 5710 5713 5716 5720 5723 5726 5729 5731 5734 5736 5738 5740 5742
5574 5578 5581 5585 5590 5594 5598 5602 5606 5611 5616 5620 5624 5629 5633 5638 5642 5647 5651 5656 5660 5664 5669 5674 5678 5681 5684 5688 5691 5694 5697 5700 5704 5707 5711 5714 5717 5720 5722 5725 5727 5730 5732
5561 5564 5568 5572 5576 5580 5584 5588 5592 5597 5602 5606 5610 5615 5619 5624 5629 5633 5637 5642 5647 5651 5656 5660 5664 5668 5672 5675 5678 5682 5685 5688 5691 5694 5698 5701 5704 5707 5710 5713 5715 5718 5720
5547 5551 5554 5558 5562 5566 5570 5574 5578 5583 5587 5592 5596 5601 5605 5610 5615 5619 5624 5628 5633 5637 5641 5646 5651 5655 5659 5661 5665 5668 5672 5675 5678 5681 5684 5688 5691 5694 5697 5700 5703 5706 5708
5533 5537 5541 5544 5548 5553 5557 5560 5564 5568 5573 5577 5582 5586 5591 5596 5601 5605 5609 5614 5618 5623 5627 5632 5637 5641 5645 5648 5651 5654 5658 5661 5664 5667 5670 5674 5678 5681 5684 5687 5690 5693 5695
5519 5523 5527 5531 5534 5539 5542 5546 5550 5554 5558 5563 5567 5571 5576 5581 5586 5590 5594 5599 5604 5608 5613 5618 5622 5626 5630 5634 5637 5640 5643 5647 5650 5653 5656 5660 5664 5668 5670 5673 5676 5678 5681
5505 5509 5513 5517 5521 5525 5528 5532 5535 5539 5544 5548 5552 5556 5561 5566 5571 5575 5580 5584 5589 5594 5599 5603 5608 5612 5616 5619 5622 5625 5628 5632 5637 5640 5643 5646 5649 5653 5656 5659 5661 5664 5666
5491 5495 5499 5503 5507 5510 5514 5517 5521 5525 5529 5533 5537 5541 5546 5551 5555 5560 5565 5569 5574 5579 5584 5589 5593 5598 5601 5605 5608 5612 5614 5617 5622 5625 5628 5632 5634 5638 5641 5644 5646 5649 5651
5478 5482 5486 5489 5493 5496 5500 5503 5507 5510 5514 5518 5522 5527 5531 5536 5540 5545 5549 5554 5559 5564 5569 5574 5580 5584 5586 5589 5592 5596 5599 5603 5607 5610 5612 5617 5620 5623 5626 5628 5630 5633 5635
5465 5469 5472 5476 5480 5483 5486 5489 5492 5496 5500 5504 5508 5512 5516 5520 5525 5530 5535 5540 5545 5549 5553 5558 5563 5567 5570 5574 5577 5580 5584 5588 5592 5595 5598 5601 5605 5607 5610 5613 5615 5617 5620
5452 5456 5459 5463 5466 5469 5472 5475 5478 5482 5486 5490 5493 5497 5501 5505 5510 5513 5518 5524 5529 5534 5538 5543 5548 5552 5556 5559 5563 5566 5570 5573 5577 5580 5583 5586 5589 5591 5595 5598 5600 5602 5604